Time,TemperatureF,DewpointF,PressureIn,WindDirection,WindDirectionDegrees,WindSpeedMPH,WindSpeedGustMPH,Humidity,HourlyPrecipIn,Conditions,Clouds,dailyrainin,SoftwareType,DateUTC
2013-03-12 00:00:00,39.0,20.9,30.17,WNW,292,6.0,11.0,48,0.00,,,0.00,Weather View 32 v70,2013-03-12 06:00:00,
2013-03-12 00:05:00,39.0,21.9,30.17,West,270,5.0,11.0,50,0.00,,,0.00,Weather View 32 v70,2013-03-12 06:05:00,
2013-03-12 00:10:00,39.0,21.4,30.17,WNW,292,4.0,10.0,49,0.00,,,0.00,Weather View 32 v70,2013-03-12 06:10:00,
2013-03-12 00:15:00,39.0,21.4,30.17,West,270,4.0,10.0,49,0.00,,,0.00,Weather View 32 v70,2013-03-12 06:15:00,
2013-03-12 00:20:00,39.0,21.4,30.16,West,270,5.0,10.0,49,0.00,,,0.00,Weather View 32 v70,2013-03-12 06:20:00,
2013-03-12 00:25:00,38.0,21.5,30.16,WNW,292,4.0,10.0,51,0.00,,,0.00,Weather View 32 v70,2013-03-12 06:25:00,
2013-03-12 00:30:00,38.0,21.5,30.17,West,270,3.0,10.0,51,0.00,,,0.00,Weather View 32 v70,2013-03-12 06:30:00,
2013-03-12 00:35:00,38.0,21.5,30.17,WSW,247,3.0,10.0,51,0.00,,,0.00,Weather View 32 v70,2013-03-12 06:35:00,
2013-03-12 00:40:00,38.0,21.5,30.18,WSW,247,2.0,10.0,51,0.00,,,0.00,Weather View 32 v70,2013-03-12 06:40:00,
2013-03-12 00:45:00,37.0,21.0,30.18,WSW,247,2.0,10.0,52,0.00,,,0.00,Weather View 32 v70,2013-03-12 06:45:00,
2013-03-12 00:50:00,37.0,21.0,30.17,WSW,247,3.0,10.0,52,0.00,,,0.00,Weather View 32 v70,2013-03-12 06:50:00,
2013-03-12 00:55:00,37.0,21.9,30.17,West,270,3.0,10.0,54,0.00,,,0.00,Weather View 32 v70,2013-03-12 06:55:00,
2013-03-12 01:00:00,37.0,22.7,30.17,West,270,2.0,9.0,56,0.00,,,0.00,Weather View 32 v70,2013-03-12 07:00:00,
2013-03-12 01:05:00,36.0,22.2,30.17,West,270,3.0,9.0,57,0.00,,,0.00,Weather View 32 v70,2013-03-12 07:05:00,
2013-03-12 01:10:00,36.0,22.2,30.17,West,270,3.0,9.0,57,0.00,,,0.00,Weather View 32 v70,2013-03-12 07:10:00,
2013-03-12 01:15:00,35.0,21.7,30.17,West,270,1.0,8.0,58,0.00,,,0.00,Weather View 32 v70,2013-03-12 07:15:00,
2013-03-12 01:20:00,35.0,21.3,30.17,West,270,1.0,6.0,57,0.00,,,0.00,Weather View 32 v70,2013-03-12 07:20:00,
2013-03-12 01:25:00,35.0,22.5,30.17,West,270,2.0,6.0,60,0.00,,,0.00,Weather View 32 v70,2013-03-12 07:25:00,
2013-03-12 01:30:00,35.0,21.7,30.18,West,270,0.0,6.0,58,0.00,,,0.00,Weather View 32 v70,2013-03-12 07:30:00,
2013-03-12 01:35:00,35.0,21.7,30.18,West,270,0.0,6.0,58,0.00,,,0.00,Weather View 32 v70,2013-03-12 07:35:00,
2013-03-12 01:40:00,35.0,21.3,30.17,West,270,4.0,6.0,57,0.00,,,0.00,Weather View 32 v70,2013-03-12 07:40:00,
2013-03-12 01:45:00,35.0,21.7,30.17,West,270,1.0,6.0,58,0.00,,,0.00,Weather View 32 v70,2013-03-12 07:45:00,
2013-03-12 01:50:00,35.0,21.7,30.18,West,270,3.0,6.0,58,0.00,,,0.00,Weather View 32 v70,2013-03-12 07:50:00,
2013-03-12 01:55:00,34.0,20.8,30.18,West,270,4.0,6.0,58,0.00,,,0.00,Weather View 32 v70,2013-03-12 07:55:00,
2013-03-12 02:00:00,35.0,21.7,30.18,West,270,3.0,6.0,58,0.00,,,0.00,Weather View 32 v70,2013-03-12 08:00:00,
2013-03-12 02:05:00,34.0,21.6,30.18,West,270,3.0,6.0,60,0.00,,,0.00,Weather View 32 v70,2013-03-12 08:05:00,
2013-03-12 02:10:00,34.0,21.6,30.17,West,270,5.0,6.0,60,0.00,,,0.00,Weather View 32 v70,2013-03-12 08:10:00,
2013-03-12 02:15:00,34.0,22.0,30.17,West,270,4.0,6.0,61,0.00,,,0.00,Weather View 32 v70,2013-03-12 08:15:00,
2013-03-12 02:20:00,34.0,22.0,30.18,West,270,4.0,7.0,61,0.00,,,0.00,Weather View 32 v70,2013-03-12 08:20:00,
2013-03-12 02:25:00,34.0,22.3,30.18,West,270,4.0,7.0,62,0.00,,,0.00,Weather View 32 v70,2013-03-12 08:25:00,
2013-03-12 02:30:00,34.0,22.3,30.18,West,270,4.0,7.0,62,0.00,,,0.00,Weather View 32 v70,2013-03-12 08:30:00,
2013-03-12 02:35:00,33.0,22.1,30.18,West,270,3.0,7.0,64,0.00,,,0.00,Weather View 32 v70,2013-03-12 08:35:00,
2013-03-12 02:40:00,33.0,22.1,30.18,West,270,5.0,7.0,64,0.00,,,0.00,Weather View 32 v70,2013-03-12 08:40:00,
2013-03-12 02:45:00,33.0,22.1,30.18,WNW,292,6.0,8.0,64,0.00,,,0.00,Weather View 32 v70,2013-03-12 08:45:00,
2013-03-12 02:50:00,33.0,22.1,30.18,WNW,292,4.0,8.0,64,0.00,,,0.00,Weather View 32 v70,2013-03-12 08:50:00,
2013-03-12 02:55:00,33.0,22.1,30.18,West,270,5.0,8.0,64,0.00,,,0.00,Weather View 32 v70,2013-03-12 08:55:00,
2013-03-12 03:00:00,33.0,21.8,30.18,West,270,5.0,8.0,63,0.00,,,0.00,Weather View 32 v70,2013-03-12 09:00:00,
2013-03-12 03:05:00,33.0,21.8,30.18,West,270,6.0,8.0,63,0.00,,,0.00,Weather View 32 v70,2013-03-12 09:05:00,
2013-03-12 03:10:00,33.0,21.8,30.18,West,270,4.0,8.0,63,0.00,,,0.00,Weather View 32 v70,2013-03-12 09:10:00,
2013-03-12 03:15:00,33.0,22.1,30.18,West,270,4.0,8.0,64,0.00,,,0.00,Weather View 32 v70,2013-03-12 09:15:00,
2013-03-12 03:21:00,33.0,22.1,30.18,WNW,292,4.0,8.0,64,0.00,,,0.00,Weather View 32 v70,2013-03-12 09:21:00,
2013-03-12 03:26:00,33.0,22.1,30.18,WNW,292,5.0,8.0,64,0.00,,,0.00,Weather View 32 v70,2013-03-12 09:26:00,
2013-03-12 03:31:00,33.0,22.5,30.18,WNW,292,5.0,8.0,65,0.00,,,0.00,Weather View 32 v70,2013-03-12 09:31:00,
2013-03-12 03:36:00,33.0,22.5,30.18,WNW,292,5.0,8.0,65,0.00,,,0.00,Weather View 32 v70,2013-03-12 09:36:00,
2013-03-12 03:41:00,33.0,22.5,30.18,WNW,292,4.0,8.0,65,0.00,,,0.00,Weather View 32 v70,2013-03-12 09:41:00,
2013-03-12 03:47:00,33.0,22.9,30.18,WNW,292,4.0,8.0,66,0.00,,,0.00,Weather View 32 v70,2013-03-12 09:47:00,
2013-03-12 03:52:00,33.0,22.9,30.18,WNW,292,4.0,8.0,66,0.00,,,0.00,Weather View 32 v70,2013-03-12 09:52:00,
2013-03-12 03:57:00,33.0,22.5,30.18,WNW,292,5.0,8.0,65,0.00,,,0.00,Weather View 32 v70,2013-03-12 09:57:00,
2013-03-12 04:03:00,33.0,22.5,30.18,WNW,292,5.0,8.0,65,0.00,,,0.00,Weather View 32 v70,2013-03-12 10:03:00,
2013-03-12 04:08:00,33.0,22.5,30.18,West,270,4.0,8.0,65,0.00,,,0.00,Weather View 32 v70,2013-03-12 10:08:00,
2013-03-12 04:13:00,33.0,22.5,30.18,West,270,5.0,8.0,65,0.00,,,0.00,Weather View 32 v70,2013-03-12 10:13:00,
2013-03-12 04:18:00,33.0,22.5,30.18,WNW,292,5.0,8.0,65,0.00,,,0.00,Weather View 32 v70,2013-03-12 10:18:00,
2013-03-12 04:23:00,33.0,21.8,30.18,West,270,7.0,8.0,63,0.00,,,0.00,Weather View 32 v70,2013-03-12 10:23:00,
2013-03-12 04:28:00,33.0,21.0,30.18,WNW,292,7.0,9.0,61,0.00,,,0.00,Weather View 32 v70,2013-03-12 10:28:00,
2013-03-12 04:33:00,33.0,21.0,30.18,West,270,5.0,9.0,61,0.00,,,0.00,Weather View 32 v70,2013-03-12 10:33:00,
2013-03-12 04:38:00,33.0,21.0,30.18,West,270,5.0,9.0,61,0.00,,,0.00,Weather View 32 v70,2013-03-12 10:38:00,
2013-03-12 04:43:00,34.0,22.0,30.18,West,270,4.0,9.0,61,0.00,,,0.00,Weather View 32 v70,2013-03-12 10:43:00,
2013-03-12 04:48:00,34.0,22.0,30.18,West,270,5.0,9.0,61,0.00,,,0.00,Weather View 32 v70,2013-03-12 10:48:00,
2013-03-12 04:53:00,34.0,22.0,30.18,West,270,6.0,9.0,61,0.00,,,0.00,Weather View 32 v70,2013-03-12 10:53:00,
2013-03-12 04:58:00,34.0,22.0,30.18,West,270,4.0,9.0,61,0.00,,,0.00,Weather View 32 v70,2013-03-12 10:58:00,
2013-03-12 05:03:00,33.0,21.4,30.19,West,270,5.0,9.0,62,0.00,,,0.00,Weather View 32 v70,2013-03-12 11:03:00,
2013-03-12 05:09:00,33.0,21.4,30.19,West,270,4.0,9.0,62,0.00,,,0.00,Weather View 32 v70,2013-03-12 11:09:00,
2013-03-12 05:14:00,33.0,21.8,30.19,WNW,292,5.0,9.0,63,0.00,,,0.00,Weather View 32 v70,2013-03-12 11:14:00,
2013-03-12 05:20:00,33.0,21.8,30.19,West,270,5.0,9.0,63,0.00,,,0.00,Weather View 32 v70,2013-03-12 11:20:00,
2013-03-12 05:25:00,33.0,21.8,30.19,West,270,4.0,9.0,63,0.00,,,0.00,Weather View 32 v70,2013-03-12 11:25:00,
2013-03-12 05:30:00,33.0,21.8,30.19,West,270,3.0,9.0,63,0.00,,,0.00,Weather View 32 v70,2013-03-12 11:30:00,
2013-03-12 05:35:00,33.0,21.8,30.19,NW,315,5.0,9.0,63,0.00,,,0.00,Weather View 32 v70,2013-03-12 11:35:00,
2013-03-12 05:40:00,33.0,21.4,30.20,NW,315,4.0,9.0,62,0.00,,,0.00,Weather View 32 v70,2013-03-12 11:40:00,
2013-03-12 05:46:00,33.0,21.4,30.20,NW,315,5.0,9.0,62,0.00,,,0.00,Weather View 32 v70,2013-03-12 11:46:00,
2013-03-12 05:51:00,33.0,21.4,30.20,NW,315,5.0,9.0,62,0.00,,,0.00,Weather View 32 v70,2013-03-12 11:51:00,
2013-03-12 05:56:00,32.0,20.8,30.20,NW,315,3.0,8.0,63,0.00,,,0.00,Weather View 32 v70,2013-03-12 11:56:00,
2013-03-12 06:01:00,33.0,21.8,30.20,NW,315,4.0,8.0,63,0.00,,,0.00,Weather View 32 v70,2013-03-12 12:01:00,
2013-03-12 06:06:00,33.0,21.8,30.20,NW,315,4.0,8.0,63,0.00,,,0.00,Weather View 32 v70,2013-03-12 12:06:00,
2013-03-12 06:11:00,33.0,21.8,30.20,WNW,292,4.0,8.0,63,0.00,,,0.00,Weather View 32 v70,2013-03-12 12:11:00,
2013-03-12 06:16:00,32.0,21.2,30.20,West,270,4.0,8.0,64,0.00,,,0.00,Weather View 32 v70,2013-03-12 12:16:00,
2013-03-12 06:21:00,32.0,21.9,30.20,WNW,292,3.0,8.0,66,0.00,,,0.00,Weather View 32 v70,2013-03-12 12:21:00,
2013-03-12 06:26:00,32.0,21.9,30.20,WNW,292,5.0,8.0,66,0.00,,,0.00,Weather View 32 v70,2013-03-12 12:26:00,
2013-03-12 06:31:00,32.0,21.2,30.20,WNW,292,5.0,8.0,64,0.00,,,0.00,Weather View 32 v70,2013-03-12 12:31:00,
2013-03-12 06:36:00,33.0,22.1,30.20,NW,315,4.0,8.0,64,0.00,,,0.00,Weather View 32 v70,2013-03-12 12:36:00,
2013-03-12 06:41:00,33.0,22.1,30.21,WNW,292,4.0,8.0,64,0.00,,,0.00,Weather View 32 v70,2013-03-12 12:41:00,
2013-03-12 06:46:00,33.0,22.1,30.21,West,270,3.0,8.0,64,0.00,,,0.00,Weather View 32 v70,2013-03-12 12:46:00,
2013-03-12 06:51:00,33.0,22.5,30.22,West,270,4.0,8.0,65,0.00,,,0.00,Weather View 32 v70,2013-03-12 12:51:00,
2013-03-12 06:57:00,33.0,22.5,30.22,West,270,0.0,8.0,65,0.00,,,0.00,Weather View 32 v70,2013-03-12 12:57:00,
2013-03-12 07:02:00,32.0,21.6,30.22,ESE,112,4.0,8.0,65,0.00,,,0.00,Weather View 32 v70,2013-03-12 13:02:00,
2013-03-12 07:07:00,32.0,22.3,30.22,ESE,112,3.0,8.0,67,0.00,,,0.00,Weather View 32 v70,2013-03-12 13:07:00,
2013-03-12 07:12:00,31.0,22.4,30.22,SE,135,3.0,8.0,70,0.00,,,0.00,Weather View 32 v70,2013-03-12 13:12:00,
2013-03-12 07:17:00,31.0,23.4,30.22,ESE,112,4.0,8.0,73,0.00,,,0.00,Weather View 32 v70,2013-03-12 13:17:00,
2013-03-12 07:23:00,30.0,23.7,30.22,East,90,2.0,8.0,77,0.00,,,0.00,Weather View 32 v70,2013-03-12 13:23:00,
2013-03-12 07:28:00,30.0,23.7,30.22,East,90,0.0,7.0,77,0.00,,,0.00,Weather View 32 v70,2013-03-12 13:28:00,
2013-03-12 07:34:00,29.0,23.0,30.23,East,90,3.0,7.0,78,0.00,,,0.00,Weather View 32 v70,2013-03-12 13:34:00,
2013-03-12 07:39:00,30.0,23.4,30.24,East,90,0.0,7.0,76,0.00,,,0.00,Weather View 32 v70,2013-03-12 13:39:00,
2013-03-12 07:44:00,30.0,22.4,30.24,East,90,2.0,6.0,73,0.00,,,0.00,Weather View 32 v70,2013-03-12 13:44:00,
2013-03-12 07:49:00,30.0,22.1,30.23,East,90,3.0,6.0,72,0.00,,,0.00,Weather View 32 v70,2013-03-12 13:49:00,
2013-03-12 07:54:00,30.0,22.1,30.23,East,90,5.0,6.0,72,0.00,,,0.00,Weather View 32 v70,2013-03-12 13:54:00,
2013-03-12 07:59:00,31.0,22.4,30.23,East,90,4.0,6.0,70,0.00,,,0.00,Weather View 32 v70,2013-03-12 13:59:00,
2013-03-12 08:04:00,31.0,22.0,30.24,East,90,5.0,6.0,69,0.00,,,0.00,Weather View 32 v70,2013-03-12 14:04:00,
2013-03-12 08:09:00,32.0,22.3,30.24,East,90,3.0,6.0,67,0.00,,,0.00,Weather View 32 v70,2013-03-12 14:09:00,
2013-03-12 08:14:00,33.0,22.9,30.24,East,90,2.0,6.0,66,0.00,,,0.00,Weather View 32 v70,2013-03-12 14:14:00,
2013-03-12 08:19:00,34.0,23.1,30.24,East,90,6.0,8.0,64,0.00,,,0.00,Weather View 32 v70,2013-03-12 14:19:00,
2013-03-12 08:24:00,34.0,22.3,30.24,East,90,5.0,8.0,62,0.00,,,0.00,Weather View 32 v70,2013-03-12 14:24:00,
2013-03-12 08:29:00,34.0,22.3,30.24,East,90,8.0,8.0,62,0.00,,,0.00,Weather View 32 v70,2013-03-12 14:29:00,
2013-03-12 08:34:00,35.0,23.3,30.24,East,90,6.0,8.0,62,0.00,,,0.00,Weather View 32 v70,2013-03-12 14:34:00,
2013-03-12 08:40:00,35.0,22.9,30.24,East,90,6.0,8.0,61,0.00,,,0.00,Weather View 32 v70,2013-03-12 14:40:00,
2013-03-12 08:45:00,35.0,22.5,30.24,East,90,7.0,8.0,60,0.00,,,0.00,Weather View 32 v70,2013-03-12 14:45:00,
2013-03-12 08:50:00,36.0,23.0,30.25,East,90,4.0,8.0,59,0.00,,,0.00,Weather View 32 v70,2013-03-12 14:50:00,
2013-03-12 08:55:00,36.0,22.2,30.25,East,90,5.0,8.0,57,0.00,,,0.00,Weather View 32 v70,2013-03-12 14:55:00,
2013-03-12 09:01:00,37.0,21.9,30.26,East,90,3.0,8.0,54,0.00,,,0.00,Weather View 32 v70,2013-03-12 15:01:00,
2013-03-12 09:07:00,38.0,21.9,30.26,East,90,1.0,8.0,52,0.00,,,0.00,Weather View 32 v70,2013-03-12 15:07:00,
2013-03-12 09:12:00,39.0,21.9,30.26,South,180,2.0,8.0,50,0.00,,,0.00,Weather View 32 v70,2013-03-12 15:12:00,
2013-03-12 09:17:00,40.0,20.9,30.26,SSW,202,5.0,8.0,46,0.00,,,0.00,Weather View 32 v70,2013-03-12 15:17:00,
2013-03-12 09:23:00,42.0,21.1,30.25,SSW,202,7.0,8.0,43,0.00,,,0.00,Weather View 32 v70,2013-03-12 15:23:00,
2013-03-12 09:28:00,42.0,21.1,30.25,SW,225,4.0,8.0,43,0.00,,,0.00,Weather View 32 v70,2013-03-12 15:28:00,
2013-03-12 09:33:00,43.0,22.0,30.25,SW,225,6.0,8.0,43,0.00,,,0.00,Weather View 32 v70,2013-03-12 15:33:00,
2013-03-12 09:38:00,44.0,22.3,30.25,SW,225,5.0,9.0,42,0.00,,,0.00,Weather View 32 v70,2013-03-12 15:38:00,
2013-03-12 09:43:00,44.0,22.3,30.25,South,180,4.0,9.0,42,0.00,,,0.00,Weather View 32 v70,2013-03-12 15:43:00,
2013-03-12 09:48:00,45.0,21.5,30.25,SSW,202,4.0,9.0,39,0.00,,,0.00,Weather View 32 v70,2013-03-12 15:48:00,
2013-03-12 09:54:00,46.0,23.0,30.25,South,180,4.0,9.0,40,0.00,,,0.00,Weather View 32 v70,2013-03-12 15:54:00,
2013-03-12 09:59:00,46.0,21.8,30.25,SW,225,4.0,9.0,38,0.00,,,0.00,Weather View 32 v70,2013-03-12 15:59:00,
2013-03-12 10:04:00,47.0,22.7,30.25,SSW,202,6.0,9.0,38,0.00,,,0.00,Weather View 32 v70,2013-03-12 16:04:00,
2013-03-12 10:09:00,47.0,22.7,30.25,South,180,4.0,9.0,38,0.00,,,0.00,Weather View 32 v70,2013-03-12 16:09:00,
2013-03-12 10:14:00,48.0,22.9,30.25,WNW,292,6.0,9.0,37,0.00,,,0.00,Weather View 32 v70,2013-03-12 16:14:00,
2013-03-12 10:19:00,48.0,22.3,30.25,West,270,4.0,9.0,36,0.00,,,0.00,Weather View 32 v70,2013-03-12 16:19:00,
2013-03-12 10:24:00,49.0,23.2,30.24,West,270,4.0,9.0,36,0.00,,,0.00,Weather View 32 v70,2013-03-12 16:24:00,
2013-03-12 10:29:00,49.0,22.5,30.24,NW,315,6.0,10.0,35,0.00,,,0.00,Weather View 32 v70,2013-03-12 16:29:00,
2013-03-12 10:34:00,50.0,24.0,30.24,West,270,4.0,10.0,36,0.00,,,0.00,Weather View 32 v70,2013-03-12 16:34:00,
2013-03-12 10:39:00,50.0,23.4,30.24,West,270,8.0,10.0,35,0.00,,,0.00,Weather View 32 v70,2013-03-12 16:39:00,
2013-03-12 10:44:00,51.0,23.6,30.24,West,270,4.0,10.0,34,0.00,,,0.00,Weather View 32 v70,2013-03-12 16:44:00,
2013-03-12 10:49:00,51.0,23.6,30.24,West,270,3.0,10.0,34,0.00,,,0.00,Weather View 32 v70,2013-03-12 16:49:00,
2013-03-12 10:54:00,52.0,23.7,30.24,West,270,7.0,10.0,33,0.00,,,0.00,Weather View 32 v70,2013-03-12 16:54:00,
2013-03-12 10:59:00,52.0,24.4,30.24,West,270,0.0,10.0,34,0.00,,,0.00,Weather View 32 v70,2013-03-12 16:59:00,
2013-03-12 11:04:00,53.0,24.6,30.23,WSW,247,2.0,10.0,33,0.00,,,0.00,Weather View 32 v70,2013-03-12 17:04:00,
2013-03-12 11:09:00,53.0,24.6,30.23,NW,315,8.0,12.0,33,0.00,,,0.00,Weather View 32 v70,2013-03-12 17:09:00,
2013-03-12 11:14:00,54.0,24.0,30.23,West,270,6.0,12.0,31,0.00,,,0.00,Weather View 32 v70,2013-03-12 17:14:00,
2013-03-12 11:19:00,54.0,23.2,30.23,West,270,3.0,12.0,30,0.00,,,0.00,Weather View 32 v70,2013-03-12 17:19:00,
2013-03-12 11:24:00,55.0,22.4,30.23,North,360,7.0,12.0,28,0.00,,,0.00,Weather View 32 v70,2013-03-12 17:24:00,
2013-03-12 11:29:00,54.0,23.2,30.23,NNE,22,6.0,12.0,30,0.00,,,0.00,Weather View 32 v70,2013-03-12 17:29:00,
2013-03-12 11:34:00,54.0,22.4,30.22,NE,45,4.0,12.0,29,0.00,,,0.00,Weather View 32 v70,2013-03-12 17:34:00,
2013-03-12 11:39:00,55.0,22.4,30.22,West,270,6.0,12.0,28,0.00,,,0.00,Weather View 32 v70,2013-03-12 17:39:00,
2013-03-12 11:44:00,54.0,21.6,30.22,NNW,337,6.0,14.0,28,0.00,,,0.00,Weather View 32 v70,2013-03-12 17:44:00,
2013-03-12 11:49:00,55.0,22.4,30.22,NNW,337,6.0,14.0,28,0.00,,,0.00,Weather View 32 v70,2013-03-12 17:49:00,
2013-03-12 11:54:00,54.0,24.8,30.22,NNW,337,7.0,14.0,32,0.00,,,0.00,Weather View 32 v70,2013-03-12 17:54:00,
2013-03-12 11:59:00,54.0,24.0,30.22,ESE,112,6.0,14.0,31,0.00,,,0.00,Weather View 32 v70,2013-03-12 17:59:00,
2013-03-12 12:04:00,55.0,22.4,30.22,North,360,6.0,14.0,28,0.00,,,0.00,Weather View 32 v70,2013-03-12 18:04:00,
2013-03-12 12:09:00,55.0,20.7,30.22,West,270,3.0,14.0,26,0.00,,,0.00,Weather View 32 v70,2013-03-12 18:09:00,
2013-03-12 12:14:00,56.0,20.6,30.22,West,270,5.0,14.0,25,0.00,,,0.00,Weather View 32 v70,2013-03-12 18:14:00,
2013-03-12 12:19:00,57.0,23.3,30.22,NE,45,13.0,16.0,27,0.00,,,0.00,Weather View 32 v70,2013-03-12 18:19:00,
2013-03-12 12:24:00,55.0,24.1,30.22,East,90,4.0,17.0,30,0.00,,,0.00,Weather View 32 v70,2013-03-12 18:24:00,
2013-03-12 12:29:00,56.0,23.3,30.22,West,270,3.0,17.0,28,0.00,,,0.00,Weather View 32 v70,2013-03-12 18:29:00,
2013-03-12 12:34:00,56.0,19.6,30.21,North,360,5.0,17.0,24,0.00,,,0.00,Weather View 32 v70,2013-03-12 18:34:00,
2013-03-12 12:39:00,57.0,20.5,30.21,NW,315,6.0,17.0,24,0.00,,,0.00,Weather View 32 v70,2013-03-12 18:39:00,
2013-03-12 12:44:00,58.0,21.3,30.20,NW,315,6.0,17.0,24,0.00,,,0.00,Weather View 32 v70,2013-03-12 18:44:00,
2013-03-12 12:49:00,58.0,20.3,30.20,NW,315,6.0,17.0,23,0.00,,,0.00,Weather View 32 v70,2013-03-12 18:49:00,
2013-03-12 12:54:00,58.0,21.3,30.19,West,270,8.0,17.0,24,0.00,,,0.00,Weather View 32 v70,2013-03-12 18:54:00,
2013-03-12 12:59:00,59.0,22.2,30.19,West,270,5.0,17.0,24,0.00,,,0.00,Weather View 32 v70,2013-03-12 18:59:00,
2013-03-12 13:04:00,59.0,21.2,30.19,West,270,8.0,17.0,23,0.00,,,0.00,Weather View 32 v70,2013-03-12 19:04:00,
2013-03-12 13:09:00,59.0,20.1,30.19,SW,225,6.0,17.0,22,0.00,,,0.00,Weather View 32 v70,2013-03-12 19:09:00,
2013-03-12 13:14:00,59.0,21.2,30.20,West,270,5.0,17.0,23,0.00,,,0.00,Weather View 32 v70,2013-03-12 19:14:00,
2013-03-12 13:19:00,59.0,21.2,30.20,South,180,7.0,17.0,23,0.00,,,0.00,Weather View 32 v70,2013-03-12 19:19:00,
2013-03-12 13:24:00,59.0,21.2,30.19,West,270,10.0,18.0,23,0.00,,,0.00,Weather View 32 v70,2013-03-12 19:24:00,
2013-03-12 13:29:00,59.0,22.2,30.19,SW,225,13.0,19.0,24,0.00,,,0.00,Weather View 32 v70,2013-03-12 19:29:00,
2013-03-12 13:34:00,59.0,24.1,30.18,West,270,12.0,23.0,26,0.00,,,0.00,Weather View 32 v70,2013-03-12 19:34:00,
2013-03-12 13:39:00,59.0,25.0,30.18,West,270,13.0,23.0,27,0.00,,,0.00,Weather View 32 v70,2013-03-12 19:39:00,
2013-03-12 13:44:00,58.0,22.3,30.18,West,270,10.0,23.0,25,0.00,,,0.00,Weather View 32 v70,2013-03-12 19:44:00,
2013-03-12 13:49:00,58.0,21.3,30.18,West,270,10.0,23.0,24,0.00,,,0.00,Weather View 32 v70,2013-03-12 19:49:00,
2013-03-12 13:54:00,58.0,24.1,30.18,West,270,8.0,23.0,27,0.00,,,0.00,Weather View 32 v70,2013-03-12 19:54:00,
2013-03-12 13:59:00,58.0,23.2,30.18,WSW,247,6.0,23.0,26,0.00,,,0.00,Weather View 32 v70,2013-03-12 19:59:00,
2013-03-12 14:04:00,58.0,21.3,30.18,NW,315,9.0,23.0,24,0.00,,,0.00,Weather View 32 v70,2013-03-12 20:04:00,
2013-03-12 14:09:00,58.0,23.2,30.18,NW,315,10.0,23.0,26,0.00,,,0.00,Weather View 32 v70,2013-03-12 20:09:00,
2013-03-12 14:14:00,59.0,24.1,30.18,West,270,10.0,23.0,26,0.00,,,0.00,Weather View 32 v70,2013-03-12 20:14:00,
2013-03-12 14:19:00,59.0,22.2,30.18,West,270,12.0,23.0,24,0.00,,,0.00,Weather View 32 v70,2013-03-12 20:19:00,
2013-03-12 14:24:00,59.0,23.2,30.17,WSW,247,9.0,23.0,25,0.00,,,0.00,Weather View 32 v70,2013-03-12 20:24:00,
2013-03-12 14:29:00,59.0,22.2,30.17,West,270,11.0,23.0,24,0.00,,,0.00,Weather View 32 v70,2013-03-12 20:29:00,
2013-03-12 14:34:00,59.0,22.2,30.18,West,270,6.0,23.0,24,0.00,,,0.00,Weather View 32 v70,2013-03-12 20:34:00,
2013-03-12 14:39:00,60.0,23.0,30.18,NW,315,8.0,23.0,24,0.00,,,0.00,Weather View 32 v70,2013-03-12 20:39:00,
2013-03-12 14:44:00,59.0,23.2,30.17,West,270,4.0,23.0,25,0.00,,,0.00,Weather View 32 v70,2013-03-12 20:44:00,
2013-03-12 14:49:00,60.0,24.0,30.17,NW,315,7.0,23.0,25,0.00,,,0.00,Weather View 32 v70,2013-03-12 20:49:00,
2013-03-12 14:54:00,60.0,24.9,30.16,West,270,6.0,19.0,26,0.00,,,0.00,Weather View 32 v70,2013-03-12 20:54:00,
2013-03-12 14:59:00,60.0,23.0,30.16,West,270,10.0,19.0,24,0.00,,,0.00,Weather View 32 v70,2013-03-12 20:59:00,
2013-03-12 15:04:00,60.0,24.9,30.16,West,270,4.0,19.0,26,0.00,,,0.00,Weather View 32 v70,2013-03-12 21:04:00,
2013-03-12 15:09:00,60.0,24.0,30.16,NW,315,9.0,19.0,25,0.00,,,0.00,Weather View 32 v70,2013-03-12 21:09:00,
2013-03-12 15:14:00,60.0,23.0,30.16,West,270,10.0,19.0,24,0.00,,,0.00,Weather View 32 v70,2013-03-12 21:14:00,
2013-03-12 15:19:00,60.0,23.0,30.16,West,270,8.0,20.0,24,0.00,,,0.00,Weather View 32 v70,2013-03-12 21:19:00,
2013-03-12 15:24:00,60.0,24.9,30.16,SW,225,10.0,20.0,26,0.00,,,0.00,Weather View 32 v70,2013-03-12 21:24:00,
2013-03-12 15:29:00,60.0,23.0,30.16,SW,225,7.0,20.0,24,0.00,,,0.00,Weather View 32 v70,2013-03-12 21:29:00,
2013-03-12 15:34:00,61.0,23.9,30.15,West,270,13.0,20.0,24,0.00,,,0.00,Weather View 32 v70,2013-03-12 21:34:00,
2013-03-12 15:39:00,61.0,24.9,30.15,WNW,292,8.0,20.0,25,0.00,,,0.00,Weather View 32 v70,2013-03-12 21:39:00,
2013-03-12 15:44:00,61.0,24.9,30.15,SSW,202,10.0,20.0,25,0.00,,,0.00,Weather View 32 v70,2013-03-12 21:44:00,
2013-03-12 15:49:00,61.0,24.9,30.15,West,270,4.0,20.0,25,0.00,,,0.00,Weather View 32 v70,2013-03-12 21:49:00,
2013-03-12 15:54:00,61.0,23.9,30.14,West,270,7.0,20.0,24,0.00,,,0.00,Weather View 32 v70,2013-03-12 21:54:00,
2013-03-12 15:59:00,61.0,23.9,30.14,NW,315,9.0,20.0,24,0.00,,,0.00,Weather View 32 v70,2013-03-12 21:59:00,
2013-03-12 16:04:00,61.0,26.7,30.14,West,270,11.0,20.0,27,0.00,,,0.00,Weather View 32 v70,2013-03-12 22:04:00,
2013-03-12 16:09:00,61.0,23.9,30.14,NW,315,10.0,20.0,24,0.00,,,0.00,Weather View 32 v70,2013-03-12 22:09:00,
2013-03-12 16:14:00,61.0,23.9,30.14,West,270,11.0,20.0,24,0.00,,,0.00,Weather View 32 v70,2013-03-12 22:14:00,
2013-03-12 16:19:00,61.0,25.8,30.14,West,270,8.0,20.0,26,0.00,,,0.00,Weather View 32 v70,2013-03-12 22:19:00,
2013-03-12 16:24:00,60.0,24.9,30.15,WNW,292,6.0,20.0,26,0.00,,,0.00,Weather View 32 v70,2013-03-12 22:24:00,
2013-03-12 16:29:00,60.0,23.0,30.15,NW,315,8.0,20.0,24,0.00,,,0.00,Weather View 32 v70,2013-03-12 22:29:00,
2013-03-12 16:34:00,60.0,23.0,30.15,West,270,7.0,20.0,24,0.00,,,0.00,Weather View 32 v70,2013-03-12 22:34:00,
2013-03-12 16:39:00,61.0,24.9,30.15,NW,315,8.0,20.0,25,0.00,,,0.00,Weather View 32 v70,2013-03-12 22:39:00,
2013-03-12 16:44:00,61.0,23.9,30.15,West,270,6.0,20.0,24,0.00,,,0.00,Weather View 32 v70,2013-03-12 22:44:00,
2013-03-12 16:49:00,61.0,22.9,30.15,West,270,8.0,20.0,23,0.00,,,0.00,Weather View 32 v70,2013-03-12 22:49:00,
2013-03-12 16:54:00,61.0,23.9,30.15,West,270,9.0,20.0,24,0.00,,,0.00,Weather View 32 v70,2013-03-12 22:54:00,
2013-03-12 16:59:00,61.0,24.9,30.15,West,270,5.0,20.0,25,0.00,,,0.00,Weather View 32 v70,2013-03-12 22:59:00,
2013-03-12 17:04:00,61.0,24.9,30.14,West,270,9.0,24.0,25,0.00,,,0.00,Weather View 32 v70,2013-03-12 23:04:00,
2013-03-12 17:09:00,61.0,25.8,30.14,WSW,247,12.0,24.0,26,0.00,,,0.00,Weather View 32 v70,2013-03-12 23:09:00,
2013-03-12 17:14:00,60.0,24.9,30.15,SW,225,16.0,26.0,26,0.00,,,0.00,Weather View 32 v70,2013-03-12 23:14:00,
2013-03-12 17:19:00,60.0,24.9,30.15,West,270,6.0,26.0,26,0.00,,,0.00,Weather View 32 v70,2013-03-12 23:19:00,
2013-03-12 17:24:00,60.0,24.9,30.15,West,270,13.0,26.0,26,0.00,,,0.00,Weather View 32 v70,2013-03-12 23:24:00,
2013-03-12 17:29:00,60.0,24.9,30.15,WSW,247,9.0,26.0,26,0.00,,,0.00,Weather View 32 v70,2013-03-12 23:29:00,
2013-03-12 17:34:00,60.0,24.9,30.16,NW,315,11.0,26.0,26,0.00,,,0.00,Weather View 32 v70,2013-03-12 23:34:00,
2013-03-12 17:39:00,59.0,25.0,30.16,West,270,12.0,26.0,27,0.00,,,0.00,Weather View 32 v70,2013-03-12 23:39:00,
2013-03-12 17:44:00,59.0,25.0,30.16,NW,315,8.0,26.0,27,0.00,,,0.00,Weather View 32 v70,2013-03-12 23:44:00,
2013-03-12 17:49:00,60.0,24.9,30.16,West,270,9.0,26.0,26,0.00,,,0.00,Weather View 32 v70,2013-03-12 23:49:00,
2013-03-12 17:54:00,59.0,25.9,30.15,NW,315,9.0,26.0,28,0.00,,,0.00,Weather View 32 v70,2013-03-12 23:54:00,
2013-03-12 17:59:00,59.0,25.9,30.15,WSW,247,10.0,26.0,28,0.00,,,0.00,Weather View 32 v70,2013-03-12 23:59:00,
2013-03-12 18:04:00,58.0,25.0,30.16,West,270,17.0,26.0,28,0.00,,,0.00,Weather View 32 v70,2013-03-13 00:04:00,
2013-03-12 18:09:00,58.0,25.0,30.16,West,270,7.0,26.0,28,0.00,,,0.00,Weather View 32 v70,2013-03-13 00:09:00,
2013-03-12 18:14:00,58.0,25.0,30.16,West,270,8.0,23.0,28,0.00,,,0.00,Weather View 32 v70,2013-03-13 00:14:00,
2013-03-12 18:19:00,57.0,25.0,30.16,West,270,5.0,23.0,29,0.00,,,0.00,Weather View 32 v70,2013-03-13 00:19:00,
2013-03-12 18:24:00,57.0,24.2,30.16,West,270,10.0,23.0,28,0.00,,,0.00,Weather View 32 v70,2013-03-13 00:24:00,
2013-03-12 18:29:00,57.0,25.0,30.16,West,270,6.0,23.0,29,0.00,,,0.00,Weather View 32 v70,2013-03-13 00:29:00,
2013-03-12 18:34:00,57.0,25.0,30.18,West,270,12.0,23.0,29,0.00,,,0.00,Weather View 32 v70,2013-03-13 00:34:00,
2013-03-12 18:39:00,57.0,25.0,30.18,WSW,247,9.0,23.0,29,0.00,,,0.00,Weather View 32 v70,2013-03-13 00:39:00,
2013-03-12 18:44:00,57.0,25.0,30.18,West,270,9.0,23.0,29,0.00,,,0.00,Weather View 32 v70,2013-03-13 00:44:00,
2013-03-12 18:49:00,56.0,24.1,30.18,West,270,14.0,23.0,29,0.00,,,0.00,Weather View 32 v70,2013-03-13 00:49:00,
2013-03-12 18:54:00,56.0,24.9,30.18,West,270,13.0,23.0,30,0.00,,,0.00,Weather View 32 v70,2013-03-13 00:54:00,
2013-03-12 18:59:00,56.0,24.9,30.18,West,270,13.0,23.0,30,0.00,,,0.00,Weather View 32 v70,2013-03-13 00:59:00,
2013-03-12 19:04:00,56.0,25.7,30.18,West,270,6.0,23.0,31,0.00,,,0.00,Weather View 32 v70,2013-03-13 01:04:00,
2013-03-12 19:09:00,55.0,24.9,30.18,West,270,5.0,23.0,31,0.00,,,0.00,Weather View 32 v70,2013-03-13 01:09:00,
2013-03-12 19:14:00,55.0,25.6,30.19,West,270,9.0,19.0,32,0.00,,,0.00,Weather View 32 v70,2013-03-13 01:14:00,
2013-03-12 19:19:00,54.0,25.5,30.19,West,270,5.0,19.0,33,0.00,,,0.00,Weather View 32 v70,2013-03-13 01:19:00,
2013-03-12 19:24:00,54.0,25.5,30.20,West,270,7.0,19.0,33,0.00,,,0.00,Weather View 32 v70,2013-03-13 01:24:00,
2013-03-12 19:29:00,53.0,25.3,30.20,West,270,9.0,19.0,34,0.00,,,0.00,Weather View 32 v70,2013-03-13 01:29:00,
2013-03-12 19:34:00,53.0,25.3,30.20,WNW,292,6.0,19.0,34,0.00,,,0.00,Weather View 32 v70,2013-03-13 01:34:00,
2013-03-12 19:39:00,53.0,26.0,30.20,West,270,10.0,19.0,35,0.00,,,0.00,Weather View 32 v70,2013-03-13 01:39:00,
2013-03-12 19:44:00,52.0,25.1,30.20,West,270,6.0,19.0,35,0.00,,,0.00,Weather View 32 v70,2013-03-13 01:44:00,
2013-03-12 19:49:00,52.0,25.8,30.20,West,270,8.0,19.0,36,0.00,,,0.00,Weather View 32 v70,2013-03-13 01:49:00,
2013-03-12 19:54:00,52.0,25.8,30.20,West,270,5.0,19.0,36,0.00,,,0.00,Weather View 32 v70,2013-03-13 01:54:00,
2013-03-12 19:59:00,51.0,24.9,30.20,West,270,6.0,16.0,36,0.00,,,0.00,Weather View 32 v70,2013-03-13 01:59:00,
2013-03-12 20:04:00,51.0,25.6,30.22,West,270,4.0,14.0,37,0.00,,,0.00,Weather View 32 v70,2013-03-13 02:04:00,
2013-03-12 20:09:00,51.0,26.2,30.22,West,270,5.0,13.0,38,0.00,,,0.00,Weather View 32 v70,2013-03-13 02:09:00,
2013-03-12 20:14:00,50.0,24.7,30.22,West,270,5.0,13.0,37,0.00,,,0.00,Weather View 32 v70,2013-03-13 02:14:00,
2013-03-12 20:19:00,50.0,24.7,30.22,West,270,6.0,13.0,37,0.00,,,0.00,Weather View 32 v70,2013-03-13 02:19:00,
2013-03-12 20:24:00,50.0,25.3,30.22,WSW,247,5.0,13.0,38,0.00,,,0.00,Weather View 32 v70,2013-03-13 02:24:00,
2013-03-12 20:29:00,50.0,25.3,30.22,West,270,5.0,13.0,38,0.00,,,0.00,Weather View 32 v70,2013-03-13 02:29:00,
2013-03-12 20:34:00,49.0,24.5,30.22,West,270,6.0,13.0,38,0.00,,,0.00,Weather View 32 v70,2013-03-13 02:34:00,
2013-03-12 20:39:00,49.0,24.5,30.22,West,270,5.0,13.0,38,0.00,,,0.00,Weather View 32 v70,2013-03-13 02:39:00,
2013-03-12 20:44:00,49.0,25.7,30.23,West,270,6.0,12.0,40,0.00,,,0.00,Weather View 32 v70,2013-03-13 02:44:00,
2013-03-12 20:49:00,48.0,24.8,30.23,WNW,292,5.0,12.0,40,0.00,,,0.00,Weather View 32 v70,2013-03-13 02:49:00,
2013-03-12 20:54:00,48.0,25.4,30.23,West,270,6.0,12.0,41,0.00,,,0.00,Weather View 32 v70,2013-03-13 02:54:00,
2013-03-12 20:59:00,48.0,25.4,30.23,West,270,7.0,12.0,41,0.00,,,0.00,Weather View 32 v70,2013-03-13 02:59:00,
2013-03-12 21:04:00,48.0,26.0,30.23,WNW,292,5.0,12.0,42,0.00,,,0.00,Weather View 32 v70,2013-03-13 03:04:00,
2013-03-12 21:09:00,47.0,25.1,30.23,WNW,292,10.0,12.0,42,0.00,,,0.00,Weather View 32 v70,2013-03-13 03:09:00,
2013-03-12 21:14:00,47.0,24.5,30.23,WNW,292,6.0,12.0,41,0.00,,,0.00,Weather View 32 v70,2013-03-13 03:14:00,
2013-03-12 21:19:00,47.0,23.9,30.23,West,270,7.0,12.0,40,0.00,,,0.00,Weather View 32 v70,2013-03-13 03:19:00,
2013-03-12 21:24:00,47.0,24.5,30.24,West,270,4.0,12.0,41,0.00,,,0.00,Weather View 32 v70,2013-03-13 03:24:00,
2013-03-12 21:29:00,46.0,24.2,30.24,West,270,3.0,12.0,42,0.00,,,0.00,Weather View 32 v70,2013-03-13 03:29:00,
2013-03-12 21:34:00,46.0,24.2,30.24,West,270,5.0,12.0,42,0.00,,,0.00,Weather View 32 v70,2013-03-13 03:34:00,
2013-03-12 21:39:00,46.0,24.7,30.24,West,270,4.0,12.0,43,0.00,,,0.00,Weather View 32 v70,2013-03-13 03:39:00,
2013-03-12 21:44:00,46.0,24.7,30.24,West,270,5.0,12.0,43,0.00,,,0.00,Weather View 32 v70,2013-03-13 03:44:00,
2013-03-12 21:49:00,45.0,24.9,30.24,NW,315,6.0,12.0,45,0.00,,,0.00,Weather View 32 v70,2013-03-13 03:49:00,
2013-03-12 21:54:00,46.0,24.7,30.24,NW,315,5.0,12.0,43,0.00,,,0.00,Weather View 32 v70,2013-03-13 03:54:00,
2013-03-12 21:59:00,46.0,24.2,30.24,WNW,292,10.0,12.0,42,0.00,,,0.00,Weather View 32 v70,2013-03-13 03:59:00,
2013-03-12 22:00:00,46.0,24.2,30.25,WNW,292,8.0,12.0,42,0.00,,,0.00,Weather View 32 v70,2013-03-13 04:00:00,
2013-03-12 22:05:00,46.0,24.2,30.25,WNW,292,7.0,12.0,42,0.00,,,0.00,Weather View 32 v70,2013-03-13 04:05:00,
2013-03-12 22:10:00,46.0,24.2,30.25,West,270,6.0,12.0,42,0.00,,,0.00,Weather View 32 v70,2013-03-13 04:10:00,
2013-03-12 22:15:00,46.0,24.2,30.25,WNW,292,7.0,12.0,42,0.00,,,0.00,Weather View 32 v70,2013-03-13 04:15:00,
2013-03-12 22:20:00,46.0,24.2,30.26,West,270,4.0,12.0,42,0.00,,,0.00,Weather View 32 v70,2013-03-13 04:20:00,
2013-03-12 22:25:00,45.0,23.8,30.26,SW,225,6.0,12.0,43,0.00,,,0.00,Weather View 32 v70,2013-03-13 04:25:00,
2013-03-12 22:30:00,45.0,24.4,30.26,WNW,292,4.0,12.0,44,0.00,,,0.00,Weather View 32 v70,2013-03-13 04:30:00,
2013-03-12 22:36:00,45.0,25.4,30.26,West,270,6.0,12.0,46,0.00,,,0.00,Weather View 32 v70,2013-03-13 04:36:00,
2013-03-12 22:41:00,44.0,24.5,30.26,WNW,292,5.0,12.0,46,0.00,,,0.00,Weather View 32 v70,2013-03-13 04:41:00,
2013-03-12 22:47:00,44.0,24.5,30.26,West,270,4.0,12.0,46,0.00,,,0.00,Weather View 32 v70,2013-03-13 04:47:00,
2013-03-12 22:52:00,44.0,24.5,30.26,WNW,292,4.0,12.0,46,0.00,,,0.00,Weather View 32 v70,2013-03-13 04:52:00,
2013-03-12 22:57:00,44.0,24.5,30.26,WNW,292,4.0,12.0,46,0.00,,,0.00,Weather View 32 v70,2013-03-13 04:57:00,
2013-03-12 23:03:00,44.0,24.0,30.28,WNW,292,4.0,11.0,45,0.00,,,0.00,Weather View 32 v70,2013-03-13 05:03:00,
2013-03-12 23:08:00,44.0,24.5,30.28,West,270,2.0,11.0,46,0.00,,,0.00,Weather View 32 v70,2013-03-13 05:08:00,
2013-03-12 23:13:00,44.0,25.0,30.28,West,270,0.0,10.0,47,0.00,,,0.00,Weather View 32 v70,2013-03-13 05:13:00,
2013-03-12 23:18:00,43.0,24.6,30.28,West,270,0.0,10.0,48,0.00,,,0.00,Weather View 32 v70,2013-03-13 05:18:00,
2013-03-12 23:23:00,43.0,24.6,30.27,West,270,0.0,10.0,48,0.00,,,0.00,Weather View 32 v70,2013-03-13 05:23:00,
2013-03-12 23:28:00,43.0,24.6,30.27,West,270,0.0,10.0,48,0.00,,,0.00,Weather View 32 v70,2013-03-13 05:28:00,
2013-03-12 23:33:00,42.0,24.7,30.27,West,270,0.0,10.0,50,0.00,,,0.00,Weather View 32 v70,2013-03-13 05:33:00,
2013-03-12 23:38:00,42.0,24.2,30.27,West,270,0.0,8.0,49,0.00,,,0.00,Weather View 32 v70,2013-03-13 05:38:00,
2013-03-12 23:43:00,42.0,24.2,30.28,West,270,0.0,8.0,49,0.00,,,0.00,Weather View 32 v70,2013-03-13 05:43:00,
2013-03-12 23:48:00,41.0,24.2,30.28,West,270,0.0,8.0,51,0.00,,,0.00,Weather View 32 v70,2013-03-13 05:48:00,
2013-03-12 23:53:00,41.0,23.8,30.28,West,270,0.0,8.0,50,0.00,,,0.00,Weather View 32 v70,2013-03-13 05:53:00,
2013-03-12 23:58:00,41.0,24.2,30.28,West,270,0.0,7.0,51,0.00,,,0.00,Weather View 32 v70,2013-03-13 05:58:00,